PRSS 1 (43530 NORAD) Tracking and Keplerian Element Data

This shows tracking and keplerian element data for the satellite.

Feedback or suggestion? Click here.




ElementValue
Catalog43530
NamePRSS 1
Epoch Orbit440
Epoch Day219.92895759
Epoch Year2018
RAAN290.2511
Inclination98.0682
Eccentricity0.00012
Argument of Perigee87.8227
Mean Anonmoly272.31
Mean Motion14.76768796
Decay Rate-1.1E-07
L11 43530U 18056B 18219.92895759 -.00000011 00000-0 57751-5 0 9993
L22 43530 98.0682 290.2511 0001200 87.8227 272.3100 14.76768796 4401

Live tracking and technical data element details for PRSS 1 (NORAD 43530). PRSS 1 can be tracked NOW for your location showing map with azimuth and elevation plus other details from your city location.

Track the satellite on the map from your city or location and see movement details for azimuth, elevation, latitude, longitude, range, height, and movement on the map or in text.







IsCatalogInMostPopularTable: catalog: 43530, numindb: 43
Update: records affected: 1



GetName: 43530 PRSS 1

Hit Count: updated at: Sat, 17 Nov 2018 02:56:24 GMT